AEN91A EDDH-EPWA

Flight info

Callsign AEN91A
Flight time 1h 16m
Altitude 37000
Route RAMAR6C/05 RAMAR Z998 RATMO DCT SUBIX L980 ADVAB P150 BIMPA
Aircraft A320/M-SDE3FGHIRWY/LB1

Departure

Time 2026-05-06 14:39
Airport Hamburg Helmut Schmidt Airport (EDDH)

Arrival

Time 2026-05-06 15:56
Airport Warsaw Chopin Airport (EPWA)
Time Latitude Longitude Altitude Speed Heading
2026-05-06 13:37 53.63168 10.00368 49 ft 0 kts 86°
2026-05-06 14:14 53.63167 10.00352 48 ft 4 kts 86°
2026-05-06 14:14 53.63166 10.00315 48 ft 4 kts 88°
2026-05-06 14:15 53.63169 10.00272 46 ft 4 kts 124°
2026-05-06 14:15 53.63185 10.00251 48 ft 1 kts 175°
2026-05-06 14:15 53.63186 10.00250 48 ft 0 kts 176°
2026-05-06 14:18 53.63172 10.00252 44 ft 6 kts 176°
2026-05-06 14:19 53.63135 10.00256 48 ft 3 kts 176°
2026-05-06 14:19 53.63066 10.00253 48 ft 12 kts 198°
2026-05-06 14:19 53.62997 10.00186 48 ft 10 kts 212°
2026-05-06 14:19 53.62945 10.00129 48 ft 7 kts 213°
2026-05-06 14:20 53.62928 10.00111 48 ft 0 kts 213°
2026-05-06 14:20 53.62926 10.00109 48 ft 2 kts 213°
2026-05-06 14:20 53.62891 10.00070 48 ft 8 kts 215°
2026-05-06 14:21 53.62826 9.99983 47 ft 14 kts 213°
2026-05-06 14:21 53.62741 9.99902 46 ft 14 kts 208°
2026-05-06 14:21 53.62661 9.99820 46 ft 13 kts 223°
2026-05-06 14:21 53.62626 9.99648 47 ft 17 kts 259°
2026-05-06 14:22 53.62603 9.99453 45 ft 17 kts 259°
2026-05-06 14:22 53.62581 9.99252 47 ft 18 kts 259°
2026-05-06 14:22 53.62555 9.99023 47 ft 19 kts 259°
2026-05-06 14:22 53.62531 9.98812 47 ft 17 kts 259°
2026-05-06 14:23 53.62509 9.98624 47 ft 15 kts 259°
2026-05-06 14:23 53.62491 9.98459 47 ft 13 kts 259°
2026-05-06 14:23 53.62479 9.98355 47 ft 15 kts 259°
2026-05-06 14:23 53.62458 9.98170 47 ft 13 kts 259°
2026-05-06 14:24 53.62440 9.98010 47 ft 13 kts 259°
2026-05-06 14:24 53.62428 9.97904 45 ft 4 kts 262°
2026-05-06 14:24 53.62429 9.97868 45 ft 0 kts 281°
2026-05-06 14:38 53.62467 9.97787 41 ft 9 kts 328°
2026-05-06 14:38 53.62523 9.97783 38 ft 7 kts 40°
2026-05-06 14:38 53.62529 9.97796 40 ft 0 kts 51°
2026-05-06 14:38 53.62603 9.97946 41 ft 53 kts 50°
2026-05-06 14:39 53.62996 9.98737 44 ft 120 kts 50°
2026-05-06 14:39 53.63573 9.99996 477 ft 136 kts 52°
2026-05-06 14:39 53.64146 10.01246 1325 ft 137 kts 51°
2026-05-06 14:39 53.64776 10.02534 1829 ft 152 kts 51°
2026-05-06 14:40 53.65500 10.03973 2301 ft 168 kts 50°
2026-05-06 14:40 53.66296 10.05534 2818 ft 183 kts 51°
2026-05-06 14:40 53.67141 10.07259 3315 ft 197 kts 52°
2026-05-06 14:40 53.68003 10.09092 4034 ft 202 kts 53°
2026-05-06 14:41 53.68872 10.10981 4757 ft 206 kts 53°
2026-05-06 14:41 53.69764 10.12906 5389 ft 210 kts 53°
2026-05-06 14:41 53.70677 10.14861 6044 ft 215 kts 54°
2026-05-06 14:41 53.71404 10.17089 6843 ft 221 kts 70°
2026-05-06 14:42 53.71865 10.19691 7402 ft 243 kts 74°
2026-05-06 14:42 53.72346 10.22572 8057 ft 264 kts 74°
2026-05-06 14:42 53.72852 10.25616 9012 ft 274 kts 74°
2026-05-06 14:42 53.73373 10.28768 9654 ft 282 kts 74°
2026-05-06 14:43 53.73900 10.31974 9841 ft 284 kts 74°
2026-05-06 14:43 53.74457 10.35337 9885 ft 314 kts 74°
2026-05-06 14:43 53.75062 10.38985 9893 ft 327 kts 74°
2026-05-06 14:43 53.75678 10.42716 9900 ft 331 kts 74°
2026-05-06 14:44 53.76307 10.46517 10570 ft 337 kts 74°
2026-05-06 14:44 53.76943 10.50355 11471 ft 340 kts 75°
2026-05-06 14:44 53.77577 10.54229 12275 ft 345 kts 76°
2026-05-06 14:45 53.78863 10.62209 13799 ft 356 kts 79°
2026-05-06 14:45 53.79158 10.66375 14462 ft 358 kts 92°
2026-05-06 14:45 53.78914 10.70516 15113 ft 360 kts 104°
2026-05-06 14:45 53.78123 10.74590 15794 ft 362 kts 117°
2026-05-06 14:46 53.76898 10.78263 16442 ft 365 kts 123°
2026-05-06 14:46 53.75941 10.82275 17072 ft 375 kts 105°
2026-05-06 14:46 53.75443 10.86638 17732 ft 380 kts 102°
2026-05-06 14:46 53.75012 10.91085 18359 ft 385 kts 101°
2026-05-06 14:47 53.74587 10.95580 18916 ft 390 kts 102°
2026-05-06 14:47 53.74131 11.00129 19481 ft 393 kts 102°
2026-05-06 14:47 53.73641 11.04699 20046 ft 397 kts 103°
2026-05-06 14:47 53.73118 11.09302 20601 ft 401 kts 103°
2026-05-06 14:48 53.72574 11.13943 21149 ft 405 kts 103°
2026-05-06 14:48 53.72018 11.18625 21700 ft 409 kts 103°
2026-05-06 14:48 53.71455 11.23348 22258 ft 412 kts 103°
2026-05-06 14:48 53.70890 11.28121 22844 ft 417 kts 103°
2026-05-06 14:49 53.70322 11.32951 23403 ft 420 kts 103°
2026-05-06 14:49 53.69750 11.37812 23889 ft 424 kts 103°
2026-05-06 14:49 53.69172 11.42707 24399 ft 426 kts 103°
2026-05-06 14:49 53.68591 11.47610 24890 ft 427 kts 103°
2026-05-06 14:50 53.68004 11.52537 25358 ft 428 kts 103°
2026-05-06 14:50 53.67413 11.57467 25811 ft 429 kts 103°
2026-05-06 14:50 53.66819 11.62411 26272 ft 431 kts 103°
2026-05-06 14:50 53.66221 11.67376 26727 ft 432 kts 103°
2026-05-06 14:51 53.65620 11.72336 27181 ft 433 kts 103°
2026-05-06 14:51 53.65013 11.77332 27630 ft 435 kts 103°
2026-05-06 14:51 53.64405 11.82320 28074 ft 436 kts 103°
2026-05-06 14:51 53.63796 11.87335 28490 ft 438 kts 103°
2026-05-06 14:52 53.63171 11.92302 28900 ft 439 kts 105°
2026-05-06 14:52 53.62395 11.97349 29340 ft 440 kts 107°
2026-05-06 14:52 53.61624 12.02275 29764 ft 442 kts 106°
2026-05-06 14:52 53.60863 12.07296 30122 ft 443 kts 106°
2026-05-06 14:53 53.60081 12.12341 30402 ft 445 kts 107°
2026-05-06 14:53 53.59231 12.17371 30654 ft 448 kts 108°
2026-05-06 14:53 53.58340 12.22413 30897 ft 451 kts 106°
2026-05-06 14:53 53.57592 12.27554 31220 ft 453 kts 105°
2026-05-06 14:54 53.56913 12.32742 31576 ft 454 kts 104°
2026-05-06 14:54 53.56280 12.37948 31941 ft 455 kts 103°
2026-05-06 14:54 53.55662 12.43164 32287 ft 456 kts 103°
2026-05-06 14:54 53.55035 12.48408 32625 ft 457 kts 104°
2026-05-06 14:55 53.54392 12.53648 32953 ft 458 kts 104°
2026-05-06 14:55 53.53732 12.58905 33271 ft 459 kts 105°
2026-05-06 14:55 53.53060 12.64160 33595 ft 460 kts 105°
2026-05-06 14:55 53.52381 12.69423 33913 ft 461 kts 105°
2026-05-06 14:56 53.51690 12.74709 34182 ft 463 kts 105°
2026-05-06 14:56 53.50995 12.79996 34464 ft 464 kts 105°
2026-05-06 14:56 53.50301 12.85277 34744 ft 464 kts 105°
2026-05-06 14:56 53.49610 12.90580 35021 ft 465 kts 105°
2026-05-06 14:57 53.48915 12.95903 35297 ft 466 kts 105°
2026-05-06 14:57 53.48217 13.01234 35564 ft 467 kts 106°
2026-05-06 14:57 53.47527 13.06482 35827 ft 467 kts 106°
2026-05-06 14:57 53.46821 13.11805 36086 ft 467 kts 106°
2026-05-06 14:58 53.46113 13.17133 36337 ft 468 kts 106°
2026-05-06 14:58 53.45402 13.22461 36586 ft 468 kts 106°
2026-05-06 14:58 53.44689 13.27792 36801 ft 469 kts 106°
2026-05-06 14:59 53.43253 13.38473 36853 ft 468 kts 106°
2026-05-06 14:59 53.41806 13.49121 36855 ft 468 kts 107°
2026-05-06 15:00 53.40349 13.59777 36853 ft 468 kts 107°
2026-05-06 15:00 53.38888 13.70415 36858 ft 469 kts 107°
2026-05-06 15:01 53.37412 13.81044 36843 ft 469 kts 107°
2026-05-06 15:01 53.35924 13.91675 36848 ft 469 kts 107°
2026-05-06 15:02 53.34424 14.02315 36846 ft 469 kts 107°
2026-05-06 15:02 53.32923 14.12892 36830 ft 469 kts 107°
2026-05-06 15:03 53.31407 14.23515 36842 ft 470 kts 107°
2026-05-06 15:03 53.29887 14.34129 36821 ft 470 kts 108°
2026-05-06 15:04 53.28602 14.43030 36820 ft 470 kts 108°
2026-05-06 15:04 53.27066 14.53592 36823 ft 470 kts 108°
2026-05-06 15:05 53.25515 14.64209 36823 ft 471 kts 108°
2026-05-06 15:05 53.23954 14.74831 36817 ft 471 kts 108°
2026-05-06 15:06 53.22380 14.85451 36820 ft 471 kts 108°
2026-05-06 15:06 53.20793 14.96055 36814 ft 471 kts 108°
2026-05-06 15:07 53.19197 15.06650 36810 ft 471 kts 108°
2026-05-06 15:07 53.17592 15.17259 36807 ft 471 kts 108°
2026-05-06 15:08 53.15981 15.27841 36809 ft 471 kts 109°
2026-05-06 15:08 53.14347 15.38434 36804 ft 471 kts 109°
2026-05-06 15:09 53.12711 15.49013 36802 ft 472 kts 109°
2026-05-06 15:09 53.11073 15.59583 36802 ft 472 kts 109°
2026-05-06 15:10 53.09428 15.70149 36797 ft 472 kts 109°
2026-05-06 15:10 53.07768 15.80716 36793 ft 472 kts 109°
2026-05-06 15:11 53.06096 15.91274 36789 ft 472 kts 109°
2026-05-06 15:11 53.04408 16.01823 36782 ft 472 kts 109°
2026-05-06 15:12 53.02727 16.12303 36786 ft 472 kts 109°
2026-05-06 15:12 53.01013 16.22893 36787 ft 472 kts 109°
2026-05-06 15:13 52.99312 16.33358 36781 ft 472 kts 109°
2026-05-06 15:13 52.97595 16.43878 36786 ft 472 kts 109°
2026-05-06 15:14 52.95873 16.54394 36779 ft 472 kts 110°
2026-05-06 15:14 52.94135 16.64901 36774 ft 472 kts 110°
2026-05-06 15:15 52.92381 16.75407 36772 ft 472 kts 110°
2026-05-06 15:15 52.90627 16.85887 36763 ft 472 kts 110°
2026-05-06 15:16 52.88860 16.96376 36762 ft 472 kts 110°
2026-05-06 15:16 52.87089 17.06834 36757 ft 472 kts 110°
2026-05-06 15:17 52.85292 17.17313 36748 ft 472 kts 110°
2026-05-06 15:17 52.83496 17.27765 36748 ft 472 kts 110°
2026-05-06 15:18 52.81691 17.38226 36741 ft 473 kts 110°
2026-05-06 15:18 52.79883 17.48673 36737 ft 473 kts 110°
2026-05-06 15:19 52.78072 17.59047 36732 ft 473 kts 111°
2026-05-06 15:19 52.76237 17.69487 36731 ft 473 kts 111°
2026-05-06 15:20 52.74394 17.79931 36728 ft 474 kts 111°
2026-05-06 15:20 52.72547 17.90364 36728 ft 474 kts 111°
2026-05-06 15:21 52.70677 18.00806 36728 ft 474 kts 111°
2026-05-06 15:21 52.68799 18.11236 36725 ft 475 kts 111°
2026-05-06 15:22 52.66915 18.21669 36723 ft 475 kts 111°
2026-05-06 15:22 52.65016 18.32104 36722 ft 475 kts 111°
2026-05-06 15:23 52.63107 18.42523 36726 ft 475 kts 111°
2026-05-06 15:23 52.61186 18.52956 36376 ft 483 kts 111°
2026-05-06 15:23 52.60192 18.58319 35338 ft 492 kts 112°
2026-05-06 15:24 52.59207 18.63636 34442 ft 495 kts 112°
2026-05-06 15:24 52.58203 18.69049 33603 ft 495 kts 112°
2026-05-06 15:24 52.57188 18.74519 32626 ft 498 kts 112°
2026-05-06 15:24 52.56178 18.79952 31702 ft 498 kts 112°
2026-05-06 15:25 52.55168 18.85361 30674 ft 491 kts 113°
2026-05-06 15:25 52.54171 18.90682 29687 ft 480 kts 113°
2026-05-06 15:25 52.53212 18.95817 29018 ft 465 kts 113°
2026-05-06 15:25 52.52260 19.00876 28329 ft 461 kts 113°
2026-05-06 15:26 52.51310 19.05878 27660 ft 457 kts 113°
2026-05-06 15:26 52.50362 19.10832 26994 ft 453 kts 113°
2026-05-06 15:26 52.49418 19.15745 26334 ft 450 kts 113°
2026-05-06 15:26 52.48479 19.20626 25686 ft 446 kts 112°
2026-05-06 15:27 52.47551 19.25459 25051 ft 442 kts 112°
2026-05-06 15:27 52.46635 19.30244 24430 ft 439 kts 112°
2026-05-06 15:27 52.45723 19.35005 23820 ft 435 kts 112°
2026-05-06 15:27 52.44814 19.39726 23223 ft 431 kts 112°
2026-05-06 15:28 52.43916 19.44380 22609 ft 426 kts 112°
2026-05-06 15:28 52.43028 19.48969 22085 ft 419 kts 112°
2026-05-06 15:28 52.42146 19.53497 21554 ft 414 kts 112°
2026-05-06 15:28 52.41274 19.57963 21048 ft 409 kts 112°
2026-05-06 15:29 52.40410 19.62369 20554 ft 404 kts 112°
2026-05-06 15:29 52.39561 19.66687 20027 ft 401 kts 112°
2026-05-06 15:29 52.38738 19.71035 19508 ft 400 kts 108°
2026-05-06 15:29 52.38325 19.75559 18990 ft 404 kts 96°
2026-05-06 15:30 52.38478 19.80148 18508 ft 406 kts 83°
2026-05-06 15:30 52.39199 19.84588 18164 ft 404 kts 71°
2026-05-06 15:30 52.40243 19.88842 17775 ft 401 kts 70°
2026-05-06 15:30 52.41286 19.93074 17411 ft 399 kts 70°
2026-05-06 15:31 52.42315 19.97279 17048 ft 396 kts 70°
2026-05-06 15:31 52.43336 20.01469 16688 ft 394 kts 70°
2026-05-06 15:31 52.44345 20.05616 16340 ft 391 kts 70°
2026-05-06 15:32 52.46348 20.13853 15641 ft 386 kts 70°
2026-05-06 15:32 52.47332 20.17934 15294 ft 383 kts 70°
2026-05-06 15:32 52.48301 20.21964 14970 ft 372 kts 70°
2026-05-06 15:32 52.49222 20.25784 14819 ft 349 kts 70°
2026-05-06 15:33 52.49949 20.29445 14747 ft 330 kts 85°
2026-05-06 15:33 52.49857 20.33110 14774 ft 317 kts 110°
2026-05-06 15:33 52.48911 20.36265 14774 ft 303 kts 136°
2026-05-06 15:33 52.47338 20.38351 14776 ft 290 kts 161°
2026-05-06 15:34 52.45440 20.39275 14777 ft 284 kts 174°
2026-05-06 15:34 52.43499 20.39872 14774 ft 283 kts 175°
2026-05-06 15:34 52.41554 20.40381 14773 ft 281 kts 181°
2026-05-06 15:34 52.39681 20.39874 14773 ft 272 kts 207°
2026-05-06 15:35 52.38223 20.38046 14770 ft 261 kts 233°
2026-05-06 15:35 52.37508 20.35362 14707 ft 260 kts 258°
2026-05-06 15:35 52.37646 20.32413 14300 ft 268 kts 285°
2026-05-06 15:35 52.38444 20.29619 13991 ft 273 kts 292°
2026-05-06 15:36 52.39342 20.26883 13702 ft 273 kts 293°
2026-05-06 15:36 52.40319 20.24206 13412 ft 277 kts 304°
2026-05-06 15:36 52.41821 20.22187 13140 ft 286 kts 329°
2026-05-06 15:36 52.43773 20.21390 12876 ft 296 kts 356°
2026-05-06 15:37 52.45793 20.22136 12613 ft 303 kts 26°
2026-05-06 15:37 52.47404 20.24344 12356 ft 304 kts 54°
2026-05-06 15:37 52.48548 20.27264 12102 ft 305 kts 63°
2026-05-06 15:37 52.49333 20.30423 11849 ft 302 kts 77°
2026-05-06 15:38 52.49668 20.33788 11602 ft 298 kts 91°
2026-05-06 15:38 52.49557 20.37145 11354 ft 293 kts 104°
2026-05-06 15:38 52.49025 20.40327 11115 ft 287 kts 117°
2026-05-06 15:38 52.48132 20.43224 10859 ft 283 kts 125°
2026-05-06 15:39 52.47156 20.46024 10613 ft 282 kts 125°
2026-05-06 15:39 52.46179 20.48825 10374 ft 282 kts 125°
2026-05-06 15:39 52.45207 20.51613 10124 ft 281 kts 125°
2026-05-06 15:39 52.44235 20.54398 9881 ft 281 kts 125°
2026-05-06 15:40 52.43265 20.57173 9686 ft 280 kts 125°
2026-05-06 15:40 52.42293 20.59944 9556 ft 281 kts 125°
2026-05-06 15:40 52.41316 20.62718 9425 ft 281 kts 125°
2026-05-06 15:40 52.40340 20.65490 9292 ft 280 kts 125°
2026-05-06 15:41 52.39379 20.68221 9158 ft 280 kts 125°
2026-05-06 15:41 52.38410 20.70985 9031 ft 279 kts 125°
2026-05-06 15:41 52.37446 20.73735 8897 ft 278 kts 125°
2026-05-06 15:41 52.36483 20.76477 8768 ft 278 kts 125°
2026-05-06 15:42 52.35517 20.79212 8636 ft 277 kts 125°
2026-05-06 15:42 52.34555 20.81932 8497 ft 276 kts 125°
2026-05-06 15:42 52.33593 20.84645 8375 ft 275 kts 125°
2026-05-06 15:42 52.32632 20.87355 8245 ft 275 kts 125°
2026-05-06 15:43 52.31673 20.90057 8114 ft 274 kts 125°
2026-05-06 15:43 52.30718 20.92737 7988 ft 274 kts 124°
2026-05-06 15:43 52.29759 20.95430 7874 ft 273 kts 124°
2026-05-06 15:43 52.28806 20.98108 7734 ft 272 kts 124°
2026-05-06 15:44 52.27817 21.00734 7614 ft 269 kts 131°
2026-05-06 15:44 52.26565 21.02953 7490 ft 263 kts 144°
2026-05-06 15:44 52.25608 21.04129 7408 ft 259 kts 152°
2026-05-06 15:44 52.24045 21.05531 7286 ft 256 kts 157°
2026-05-06 15:45 52.22465 21.06885 7163 ft 256 kts 157°
2026-05-06 15:45 52.20891 21.08240 7039 ft 255 kts 157°
2026-05-06 15:45 52.19323 21.09589 6921 ft 255 kts 157°
2026-05-06 15:45 52.17754 21.10941 6793 ft 255 kts 157°
2026-05-06 15:46 52.16205 21.12278 6668 ft 248 kts 157°
2026-05-06 15:46 52.14697 21.13581 6550 ft 244 kts 157°
2026-05-06 15:46 52.13209 21.14879 6422 ft 243 kts 156°
2026-05-06 15:46 52.11723 21.16181 6309 ft 242 kts 156°
2026-05-06 15:47 52.10242 21.17477 6182 ft 242 kts 157°
2026-05-06 15:47 52.08762 21.18776 6066 ft 241 kts 156°
2026-05-06 15:47 52.07279 21.20075 5926 ft 241 kts 156°
2026-05-06 15:47 52.05808 21.21362 5717 ft 239 kts 156°
2026-05-06 15:48 52.04347 21.22639 5462 ft 238 kts 156°
2026-05-06 15:48 52.02910 21.23893 5148 ft 237 kts 155°
2026-05-06 15:48 52.01456 21.25161 4845 ft 237 kts 155°
2026-05-06 15:48 51.99985 21.26439 4568 ft 236 kts 155°
2026-05-06 15:49 51.98530 21.27384 4427 ft 222 kts 176°
2026-05-06 15:49 51.97077 21.27007 4301 ft 208 kts 210°
2026-05-06 15:49 51.96091 21.25408 4149 ft 200 kts 240°
2026-05-06 15:49 51.95568 21.23328 3922 ft 201 kts 261°
2026-05-06 15:50 51.95815 21.21112 3689 ft 206 kts 296°
2026-05-06 15:50 51.96655 21.19207 3378 ft 210 kts 306°
2026-05-06 15:50 51.97597 21.17406 3118 ft 209 kts 307°
2026-05-06 15:50 51.98543 21.15630 3011 ft 208 kts 307°
2026-05-06 15:51 51.99474 21.13895 3005 ft 200 kts 307°
2026-05-06 15:51 52.00389 21.12201 3021 ft 198 kts 307°
2026-05-06 15:51 52.01296 21.10528 3006 ft 197 kts 307°
2026-05-06 15:51 52.02332 21.09053 3006 ft 202 kts 327°
2026-05-06 15:52 52.03587 21.07991 2919 ft 203 kts 328°
2026-05-06 15:52 52.04834 21.06934 2704 ft 199 kts 328°
2026-05-06 15:52 52.06023 21.05909 2468 ft 188 kts 327°
2026-05-06 15:52 52.07124 21.04956 2232 ft 171 kts 327°
2026-05-06 15:53 52.08106 21.04103 2020 ft 151 kts 326°
2026-05-06 15:53 52.08995 21.03328 1833 ft 144 kts 326°
2026-05-06 15:53 52.09879 21.02557 1624 ft 142 kts 326°
2026-05-06 15:53 52.10745 21.01794 1392 ft 142 kts 327°
2026-05-06 15:54 52.11602 21.01036 1229 ft 138 kts 328°
2026-05-06 15:54 52.12432 21.00319 1029 ft 135 kts 329°
2026-05-06 15:54 52.13254 20.99611 859 ft 132 kts 327°
2026-05-06 15:54 52.14073 20.98910 673 ft 130 kts 329°
2026-05-06 15:55 52.14868 20.98220 483 ft 129 kts 327°
2026-05-06 15:55 52.15652 20.97522 364 ft 128 kts 327°
2026-05-06 15:55 52.16369 20.96874 336 ft 100 kts 332°
2026-05-06 15:55 52.16839 20.96479 336 ft 59 kts 331°
2026-05-06 15:56 52.17102 20.96267 336 ft 31 kts 344°
2026-05-06 15:56 52.17257 20.96243 336 ft 22 kts
2026-05-06 15:56 52.17355 20.96249 337 ft 12 kts
2026-05-06 15:56 52.17408 20.96324 337 ft 10 kts 58°
2026-05-06 15:57 52.17440 20.96420 335 ft 9 kts 61°
2026-05-06 15:57 52.17469 20.96512 336 ft 8 kts 74°
2026-05-06 15:57 52.17444 20.96588 335 ft 10 kts 146°
2026-05-06 15:57 52.17366 20.96656 335 ft 13 kts 152°
2026-05-06 15:58 52.17291 20.96723 337 ft 12 kts 151°
2026-05-06 15:58 52.17221 20.96784 339 ft 11 kts 152°